GW0212 Weather Reports


Display with metric or nautical units.
time (UTC)temp
F
wind
direction
speed
MPH
gust
MPH
rain 1hr
in
rain 24hr
in
rain mn
in
humidity
%
barometer
mb
20260504040521 38 0 0.0 0.0 0.00 0.00 0.00 85 1017.6
20260504040041 39 0 0.0 0.0 0.00 0.00 0.00 84 1017.6
20260504035523 39 0 0.0 1.0 0.00 0.00 0.00 84 1017.6
20260504035021 39 0 0.0 1.0 0.00 0.00 0.00 84 1017.5
20260504034535 39 0 0.0 0.0 0.00 0.00 0.00 84 1017.5
20260504034021 40 0 0.0 1.0 0.00 0.00 0.00 83 1017.5
20260504033521 40 0 0.0 1.0 0.00 0.00 0.00 84 1017.5
20260504033040 40 0 0.0 1.0 0.00 0.00 0.00 83 1017.4
20260504032521 40 0 0.0 1.0 0.00 0.00 0.00 83 1017.4
20260504032021 40 0 0.0 1.0 0.00 0.00 0.00 82 1017.4
20260504031538 40 0 0.0 1.0 0.00 0.00 0.00 82 1017.5
20260504031021 41 0 0.0 0.0 0.00 0.00 0.00 82 1017.6
20260504030520 41 0 0.0 0.0 0.00 0.00 0.00 82 1017.5
20260504030040 41 0 0.0 0.0 0.00 0.00 0.00 81 1017.6
20260504025521 41 0 0.0 1.0 0.00 0.00 0.00 81 1017.5
20260504025021 41 0 0.0 1.0 0.00 0.00 0.00 81 1017.6
20260504024543 42 44 0.0 1.0 0.00 0.00 0.00 82 1017.7
20260504024024 42 0 0.0 0.0 0.00 0.00 0.00 81 1017.8
20260504023521 42 0 0.0 1.0 0.00 0.00 0.00 80 1017.7
20260504023035 42 0 0.0 2.0 0.00 0.00 0.00 81 1017.6
20260504022525 43 0 0.0 2.0 0.00 0.00 0.00 81 1017.6
20260504022020 43 0 0.0 1.0 0.00 0.00 0.00 80 1017.5
20260504021535 43 0 0.0 1.0 0.00 0.00 0.00 79 1017.6
20260504021020 43 0 0.0 0.0 0.00 0.00 0.00 79 1017.4
20260504020525 44 0 0.0 0.0 0.00 0.00 0.00 78 1017.3
20260504020035 44 0 0.0 0.0 0.00 0.00 0.00 79 1017.1
20260504015521 44 0 0.0 0.0 0.00 0.00 0.00 79 1017.1
20260504015024 45 0 0.0 0.0 0.00 0.00 0.00 76 1017.1
20260504014538 45 0 0.0 0.0 0.00 0.00 0.00 76 1016.9
20260504014024 45 0 0.0 0.0 0.00 0.00 0.00 76 1016.9
20260504013524 46 0 0.0 0.0 0.00 0.00 0.00 77 1017.1
20260504013038 46 0 0.0 1.0 0.00 0.00 0.00 76 1016.8
20260504012524 47 0 0.0 1.0 0.00 0.00 0.00 74 1016.8
20260504012025 47 0 0.0 1.0 0.00 0.00 0.00 74 1016.9
20260504011533 48 0 0.0 1.0 0.00 0.00 0.00 72 1016.7
20260504011025 48 0 0.0 1.0 0.00 0.00 0.00 71 1016.7
20260504010522 49 0 0.0 1.0 0.00 0.00 0.00 71 1016.7
20260504010036 49 0 0.0 0.0 0.00 0.00 0.00 71 1016.6
20260504005521 50 0 0.0 0.0 0.00 0.00 0.00 69 1016.6
20260504005021 51 0 0.0 1.0 0.00 0.00 0.00 64 1016.5
20260504004533 51 0 0.0 1.0 0.00 0.00 0.00 65 1016.3
20260504004021 52 0 0.0 1.0 0.00 0.00 0.00 64 1016.3
20260504003520 53 44 0.0 1.0 0.00 0.00 0.00 64 1016.3
20260504003041 54 0 0.0 1.0 0.00 0.00 0.00 59 1016.1
20260504002522 55 0 0.0 3.0 0.00 0.00 0.00 61 1016.1
20260504002112 56 0 0.0 3.0 0.00 0.00 0.00 59 1016.1
20260504001536 56 0 0.0 2.0 0.00 0.00 0.00 55 1016.1
20260504001027 57 353 0.0 2.0 0.00 0.00 0.00 54 1016.0
20260504000520 57 0 0.0 2.0 0.00 0.00 0.00 51 1016.1
20260504000056 58 120 0.0 2.0 0.00 0.00 0.00 53 1016.0
20260503235520 58 0 0.0 2.0 0.00 0.00 0.00 54 1016.1
20260503235021 59 120 0.0 2.0 0.00 0.00 0.00 49 1016.0
20260503234536 60 0 0.0 2.0 0.00 0.00 0.00 49 1016.0
20260503234021 60 0 0.0 2.0 0.00 0.00 0.00 51 1015.9
20260503233523 61 120 0.0 2.0 0.00 0.00 0.00 48 1015.9
20260503233039 61 0 0.0 2.0 0.00 0.00 0.00 45 1015.9
20260503232525 62 112 0.0 2.0 0.00 0.00 0.00 45 1015.7
20260503232020 62 69 0.0 2.0 0.00 0.00 0.00 47 1015.8
20260503231536 63 0 0.0 2.0 0.00 0.00 0.00 44 1015.8
20260503231024 63 0 0.0 3.0 0.00 0.00 0.00 39 1015.7
20260503230522 63 186 0.0 3.0 0.00 0.00 0.00 40 1015.6
20260503230035 64 0 1.0 3.0 0.00 0.00 0.00 39 1015.7
20260503225521 64 0 1.0 3.0 0.00 0.00 0.00 41 1015.6
20260503225027 64 272 1.0 3.0 0.00 0.00 0.00 39 1015.6
20260503224538 64 0 1.0 3.0 0.00 0.00 0.00 39 1015.7
20260503224021 65 129 1.0 3.0 0.00 0.00 0.00 38 1015.8
20260503223521 65 0 0.0 3.0 0.00 0.00 0.00 39 1015.7
20260503223035 65 0 0.0 3.0 0.00 0.00 0.00 40 1015.7
20260503222522 65 189 0.0 3.0 0.00 0.00 0.00 37 1015.6
20260503222021 65 341 1.0 3.0 0.00 0.00 0.00 38 1015.6
20260503221539 65 320 1.0 3.0 0.00 0.00 0.00 38 1015.7
20260503221021 65 315 1.0 3.0 0.00 0.00 0.00 38 1015.7
20260503220521 65 255 1.0 3.0 0.00 0.00 0.00 36 1015.7
20260503220036 65 94 1.0 3.0 0.00 0.00 0.00 39 1015.7
20260503215520 65 296 0.0 6.0 0.00 0.00 0.00 36 1015.8
20260503215021 65 293 1.0 7.0 0.00 0.00 0.00 38 1015.8
20260503214534 65 223 2.0 7.0 0.00 0.00 0.00 34 1015.7
20260503214020 66 330 2.0 6.0 0.00 0.00 0.00 36 1015.8
20260503213520 65 302 1.0 6.0 0.00 0.00 0.00 38 1015.8
20260503213040 65 9 1.0 6.0 0.00 0.00 0.00 37 1015.8
20260503212520 65 292 1.0 7.0 0.00 0.00 0.00 36 1015.9
20260503212024 65 289 0.0 7.0 0.00 0.00 0.00 38 1015.9
20260503211539 65 12 2.0 7.0 0.00 0.00 0.00 34 1016.0
20260503211026 65 318 2.0 6.0 0.00 0.00 0.00 34 1016.0
20260503210526 66 170 2.0 5.0 0.00 0.00 0.00 35 1016.0
20260503210036 66 293 2.0 4.0 0.00 0.00 0.00 35 1016.0
20260503205526 67 308 2.0 4.0 0.00 0.00 0.00 35 1016.0
20260503205027 67 58 1.0 3.0 0.00 0.00 0.00 38 1016.3
20260503204538 67 0 1.0 4.0 0.00 0.00 0.00 34 1016.2
20260503204026 67 201 1.0 4.0 0.00 0.00 0.00 35 1016.3
20260503203532 67 0 0.0 6.0 0.00 0.00 0.00 33 1016.3
20260503203044 67 203 3.0 6.0 0.00 0.00 0.00 36 1016.5
20260503202526 67 289 1.0 4.0 0.00 0.00 0.00 37 1016.5
20260503202029 67 164 1.0 4.0 0.00 0.00 0.00 37 1016.5
20260503201538 66 80 0.0 7.0 0.00 0.00 0.00 34 1016.6
20260503201024 66 348 1.0 7.0 0.00 0.00 0.00 36 1016.7
20260503200529 66 280 3.0 7.0 0.00 0.00 0.00 37 1016.8
20260503200037 67 292 1.0 4.0 0.00 0.00 0.00 37 1017.0
20260503195526 66 323 1.0 4.0 0.00 0.00 0.00 38 1017.0
20260503195026 66 204 1.0 5.0 0.00 0.00 0.00 35 1017.1
20260503194537 66 23 2.0 7.0 0.00 0.00 0.00 34 1017.1
20260503194026 66 308 2.0 7.0 0.00 0.00 0.00 37 1017.3
20260503193530 65 210 2.0 4.0 0.00 0.00 0.00 35 1017.4
20260503193042 65 305 2.0 7.0 0.00 0.00 0.00 35 1017.4
20260503192525 65 11 2.0 7.0 0.00 0.00 0.00 35 1017.5
20260503192029 65 194 3.0 5.0 0.00 0.00 0.00 33 1017.7
20260503191540 65 253 2.0 5.0 0.00 0.00 0.00 35 1017.8
20260503191027 64 142 1.0 7.0 0.00 0.00 0.00 38 1017.8
20260503190525 64 112 1.0 7.0 0.00 0.00 0.00 37 1017.9
20260503190040 64 189 2.0 7.0 0.00 0.00 0.00 39 1017.9
20260503185525 64 306 1.0 5.0 0.00 0.00 0.00 35 1017.9
20260503185025 64 108 2.0 6.0 0.00 0.00 0.00 40 1017.9
20260503184557 64 349 3.0 6.0 0.00 0.00 0.00 39 1017.9
20260503184026 63 345 2.0 5.0 0.00 0.00 0.00 37 1018.0
20260503183526 63 0 1.0 4.0 0.00 0.00 0.00 44 1018.0
20260503183036 63 39 0.0 5.0 0.00 0.00 0.00 46 1017.9
20260503182525 62 278 1.0 5.0 0.00 0.00 0.00 38 1018.0
20260503182025 62 324 1.0 8.0 0.00 0.00 0.00 44 1018.0
20260503181536 62 286 2.0 8.0 0.00 0.00 0.00 38 1018.3
20260503181028 62 360 2.0 8.0 0.00 0.00 0.00 37 1018.2
20260503180525 62 220 1.0 6.0 0.00 0.00 0.00 38 1018.3
20260503180037 62 331 1.0 8.0 0.00 0.00 0.00 38 1018.3
20260503175525 62 29 2.0 8.0 0.00 0.00 0.00 38 1018.4
20260503175025 62 169 2.0 5.0 0.00 0.00 0.00 33 1018.5
20260503174540 62 329 1.0 4.0 0.00 0.00 0.00 34 1018.6
20260503174028 61 336 1.0 3.0 0.00 0.00 0.00 40 1018.7
20260503173526 61 233 1.0 5.0 0.00 0.00 0.00 42 1018.7
20260503173037 61 29 1.0 7.0 0.00 0.00 0.00 38 1018.7
20260503172524 61 325 2.0 7.0 0.00 0.00 0.00 33 1018.9
20260503172025 61 204 1.0 8.0 0.00 0.00 0.00 43 1018.8
20260503171547 60 318 2.0 8.0 0.00 0.00 0.00 39 1018.8
20260503171026 60 75 1.0 7.0 0.00 0.00 0.00 36 1019.0
20260503170526 60 227 3.0 7.0 0.00 0.00 0.00 37 1019.0
20260503150524 53 58 1.0 3.0 0.00 0.00 0.00 62 1020.2
20260503131021 39 0 0.0 0.0 0.00 0.00 0.00 97 1019.9
20260503130523 39 0 0.0 0.0 0.00 0.00 0.00 97 1020.0
20260503110525 31 0 0.0 0.0 0.00 0.00 0.00 95 1018.6
20260503081538 34 0 0.0 0.0 0.00 0.00 0.00 91 1017.2
20260503081026 34 0 0.0 0.0 0.00 0.00 0.00 91 1017.2
20260503080524 34 0 0.0 0.0 0.00 0.00 0.00 90 1017.1
20260503072523 34 0 0.0 0.0 0.00 0.00 0.00 89 1016.9
20260503072022 35 0 0.0 0.0 0.00 0.00 0.00 89 1017.0
20260503071553 35 0 0.0 0.0 0.00 0.00 0.00 89 1016.9
20260503071022 35 0 0.0 0.0 0.00 0.00 0.00 89 1016.8
20260503070522 35 0 0.0 0.0 0.00 0.00 0.00 89 1016.8
20260503055021 38 0 0.0 0.0 0.00 0.00 0.00 86 1016.5
20260503054543 38 0 0.0 0.0 0.00 0.00 0.00 86 1016.4
20260503054022 39 0 0.0 0.0 0.00 0.00 0.00 86 1016.5
20260503053528 39 0 0.0 0.0 0.00 0.00 0.00 86 1016.5
20260503053038 39 0 0.0 0.0 0.00 0.00 0.00 87 1016.6
20260503052522 39 0 0.0 0.0 0.00 0.00 0.00 87 1016.7
20260503052022 39 0 0.0 0.0 0.00 0.00 0.00 87 1016.7
20260503051535 39 0 0.0 0.0 0.00 0.00 0.00 87 1016.8
20260503051021 39 0 0.0 0.0 0.00 0.00 0.00 87 1016.8
20260503050522 39 0 0.0 0.0 0.00 0.00 0.00 87 1016.9
20260503050045 39 0 0.0 0.0 0.00 0.00 0.00 87 1016.7
20260503045522 39 0 0.0 0.0 0.00 0.00 0.00 87 1016.6
20260503045024 39 0 0.0 0.0 0.00 0.00 0.00 87 1016.5
20260503044548 39 0 0.0 0.0 0.00 0.00 0.00 87 1016.6
20260503044026 39 0 0.0 0.0 0.00 0.00 0.00 88 1016.6
20260503043522 38 0 0.0 0.0 0.00 0.00 0.00 88 1016.6
20260503043044 38 0 0.0 0.0 0.00 0.00 0.00 88 1016.6
20260503042522 38 0 0.0 0.0 0.00 0.00 0.00 88 1016.6
20260503042022 38 0 0.0 0.0 0.00 0.00 0.00 88 1016.5
20260503041535 38 0 0.0 0.0 0.00 0.00 0.00 88 1016.5
20260503041022 37 0 0.0 0.0 0.00 0.00 0.00 88 1016.5